Weather in Tushilovka

Russia / Republic of Dagestan     44°18′33″N   46°52′52″E
temp.,
°C
wind,
m/s
gust,
m/s
humid.,
%
clouds,
%
prec.,
mm/h
press.,
hPa
HPBL,
m
10 august, wed
wed1000:00+22e22620 0.0 101415
03:00+23ene33580 0.0 101327
06:00+26ene59640 0.0 1013397
09:00+30e89410 0.0 10121162
12:00+32e810380 0.0 10111274
15:00+31e911410 0.0 10101136
18:00+28ese813510 0.0 1010779
21:00+26ese714650 0.0 1010425
11 august, thu
thu1100:00+26ese714660 0.0 1009386
03:00+25ese815660 0.0 1008422
06:00+27ese816600 0.0 1008640
09:00+33ese1217320 0.0 10091697
12:00+33ese1317340 0.0 10091601
15:00+33ese1317350 0.0 10081253
18:00+29ese1117502 0.0 1008782
21:00+28ese917495 0.0 1009616
12 august, fri
fri1200:00+27ese816670 0.0 1010513
03:00+27ese8156525 0.0 1010453
06:00+28ese916533 0.1 1011708
09:00+33se11153325 0.1 10111284
12:00+34ese11143422 0.0 10121345
15:00+33ese11143429 0.0 10121209
18:00+30ese813412 0.0 1012783
21:00+27e613608 0.0 1013326
13 august, sat
sat1300:00+25e5107721 0.0 1012228
03:00+24ese487682 0.0 1012140
06:00+26ese4106092 0.0 1012308
09:00+32ese8113962 0.0 1012800
12:00+34ese1013371 0.0 10121135
15:00+33ese1114350 0.0 10111090
18:00+29e813500 0.0 1012645
21:00+27e713592 0.0 1012313
14 august, sun
sun1400:00+25e5127325 0.0 1011243
03:00+24e47854 0.0 1010135
06:00+25ese36744 0.0 1010166
09:00+33e79280 0.0 1010917
12:00+34e810320 0.0 10091015
15:00+34ese1013320 0.0 10091080
18:00+30ese814460 0.0 1009637
21:00+27e815620 0.0 1010416